COSMOS 2491 DEB, 45130

Orbit data source: Space-Track

COSMOS 2491 DEB, 45130 is space debris in LEO originally from a launch on Wed, 25 Dec 2013 UTC launched from the Plesetsk Missile And Space Complex (PKMTR). Debris objects in space refer to the collection of defunct objects orbiting the Earth. Examples of debris include non-operational satellites, rocket bodies, and fragments generated from explosions, collisions, or faulty payload assembly.

Loading next visibility...
Identifier
45130, 2013-076AC
Orbit
LEO
Country
Flag of CISCIS
Related business
Manufacturer
TsNIIKhM
Mission
Spacecraft
Bus & Motor
Unknown
Mass
Unknown
Launch date (UTC)
2013-12-25 (13 years ago)
Launch vehicle
Unknown
Launch site
Plesetsk Missile And Space Complex (PKMTR)
Object type
Payload
Rocket body
Debris
Shape & HBR
Unknown shape, 0.1 m
Radar Cross Section
Small (<0.1 m²)

Expand to show TLE details & history
Last TLE update: 3 weeks ago

TLE from 3 weeks ago
0 COSMOS 2491 DEB
1 45130U 13076AC  26235.78535182  .00002100  00000-0  97154-2 0  9998
2 45130  82.4478  57.6162 0158957 317.1261  41.7530 12.72241888303280
Epoch: 2026-08-23T18:50Z
TLE epoch observation values (Epoch: 2026-08-23T18:50:54.397Z)
Latitude
-0.00003°
Longitude
162.81312°
Altitude
1,284.516 km
Speed
7.256 km/s
True Right ascension
03h 50m 27s
True Declination
0° 00' 00"
Sunlit
Object was in daylight at epoch
Visualization orbit readout
Latitude
Unknown
Longitude
Unknown
Altitude
Unknown
Speed
Unknown
Apparent Right ascension
Unknown
Apparent Declination
Unknown
Sunlit
N/A
Visualization observer readout
Local Sidereal Time
21:38:57
Azimuth
Unknown
Elevation
Unknown
Doppler factor
Unknown
Orbital elements
Apogee altitude
1,493.296 km
Perigee altitude
1,246.967 km
Semi-major axis
7,748.269 km
Eccentricity
0.0159
Inclination
82.4478°
RAAN
57.6162°
Arg. of periapsis
317.1261°
True anomaly
42.98413°
Mean anomaly
41.753°
Eccentric anomaly
42.36673°
Mean motion
3.18226 °/min
Orbital period
113.13 mins
BSTAR
0.0097154
Loading maneuver chart data...
Computing Atmospheric mass density...
Loading historical data...
Loading historical data...
Loading historical data...
Loading historical data...
Loading historical data...
Loading historical data...
Loading historical data...

Documentation

Showing up to 5 results
|